Dades meteomassalio
Diari Summary for Abril 22, 2017 Units:  English    Metric   Both
« Previous Day
Next Day »
Diari Semanal Mensual Anual Personalitzat
  Maxima: Minima: Mijana:
Temperatura: TemperatureC °F -0.1 °F 11.6 °F
Rosada: DewpointC °F -4.7 °F 0.8 °F
Humitat: Humidity % 21 % 52 %
Velocitat del vent: WindSpeedKMH mph 0.0 mph 3 mph
Racha vent: WindSpeedGustKMH mph - -
Vent:- - East
Pressio: PressurehPa in 1019.5 in -
Pluja: 0.0 in    
Historical Graphs
 
 
Tabular Data for Abril 22, 2017
Time Temperature Dew Point Pressure Wind Wind Speed Wind Gust Humidity Rainfall Rate (Hourly) solar Conditions
TemperatureC °F DewpointC °F PressurehPa in Calm     Humidity % HourlyPrecipMM in SolarRadiationWatts/m^2 W/m2 Conditions
00:00 7.9 °F -0.3 °F 1028.3 in Calm     56 % 0.0 in 0.0 W/m2 CLR
00:05 7.7 °F -0.3 °F 1028.3 in Calm     57 % 0.0 in 0.0 W/m2 CLR
00:10 7.7 °F -0.1 °F 1028.3 in Calm     58 % 0.0 in 0.0 W/m2 CLR
00:15 7.7 °F -0.3 °F 1028.3 in Calm     57 % 0.0 in 0.0 W/m2 CLR
00:20 7.6 °F -0.4 °F 1028.3 in Calm     57 % 0.0 in 0.0 W/m2 CLR
00:25 7.3 °F -0.4 °F 1028.3 in Calm     58 % 0.0 in 0.0 W/m2 CLR
00:30 6.9 °F -0.8 °F 1028.3 in Calm     58 % 0.0 in 0.0 W/m2 CLR
00:35 6.6 °F -0.7 °F 1028.3 in Calm     60 % 0.0 in 0.0 W/m2 CLR
00:40 6.3 °F -0.7 °F 1028.3 in Calm     61 % 0.0 in 0.0 W/m2 CLR
00:45 6.1 °F -0.9 °F 1028.3 in Calm     61 % 0.0 in 0.0 W/m2 CLR
00:50 5.8 °F -0.9 °F 1028.3 in Calm     62 % 0.0 in 0.0 W/m2 CLR
00:55 5.5 °F -1.0 °F 1028.3 in Calm     63 % 0.0 in 0.0 W/m2 CLR
01:00 5.3 °F -0.9 °F 1028.3 in Calm     64 % 0.0 in 0.0 W/m2 CLR
01:05 5.3 °F -0.8 °F 1028.3 in Calm     65 % 0.0 in 0.0 W/m2 CLR
01:10 5.2 °F -0.9 °F 1028.3 in Calm     65 % 0.0 in 0.0 W/m2 CLR
01:15 5.1 °F -1.0 °F 1028.3 in Calm     65 % 0.0 in 0.0 W/m2 CLR
01:20 4.9 °F -0.9 °F 1028.3 in Calm     66 % 0.0 in 0.0 W/m2 CLR
01:21 4.9 °F -0.9 °F 1028.3 in Calm     66 % 0.0 in 0.0 W/m2 CLR
01:26 4.8 °F -1.1 °F 1028.3 in Calm     66 % 0.0 in 0.0 W/m2 CLR
01:27 4.7 °F -1.1 °F 1028.3 in Calm     66 % 0.0 in 0.0 W/m2 CLR
01:32 4.6 °F -1.1 °F 1028.3 in Calm     67 % 0.0 in 0.0 W/m2 CLR
01:37 4.4 °F -1.2 °F 1028.3 in Calm     67 % 0.0 in 0.0 W/m2 CLR
01:42 4.3 °F -1.1 °F 1028.3 in Calm     68 % 0.0 in 0.0 W/m2 CLR
01:47 4.2 °F -1.2 °F 1028.3 in Calm     68 % 0.0 in 0.0 W/m2 CLR
01:52 4.0 °F -1.2 °F 1028.3 in Calm     69 % 0.0 in 0.0 W/m2 CLR
01:57 3.9 °F -1.3 °F 1028.3 in Calm     69 % 0.0 in 0.0 W/m2 CLR
02:02 3.8 °F -1.2 °F 1028.3 in Calm     70 % 0.0 in 0.0 W/m2 CLR
02:07 3.6 °F -1.4 °F 1028.3 in Calm     70 % 0.0 in 0.0 W/m2 CLR
02:12 3.4 °F -1.5 °F 1028.3 in Calm     70 % 0.0 in 0.0 W/m2 CLR
02:17 3.3 °F -1.5 °F 1028.3 in Calm     71 % 0.0 in 0.0 W/m2 CLR
02:22 3.2 °F -1.6 °F 1028.3 in Calm     71 % 0.0 in 0.0 W/m2 CLR
02:27 3.1 °F -1.4 °F 1028.0 in Calm     72 % 0.0 in 0.0 W/m2 CLR
02:32 3.1 °F -1.5 °F 1028.0 in Calm     72 % 0.0 in 0.0 W/m2 CLR
02:37 2.9 °F -1.6 °F 1028.0 in Calm     72 % 0.0 in 0.0 W/m2 CLR
02:42 2.8 °F -1.7 °F 1028.0 in Calm     72 % 0.0 in 0.0 W/m2 CLR
02:47 2.7 °F -1.8 °F 1028.0 in Calm     72 % 0.0 in 0.0 W/m2 CLR
02:52 2.7 °F -1.5 °F 1028.0 in Calm     74 % 0.0 in 0.0 W/m2 CLR
02:57 2.7 °F -1.3 °F 1027.7 in Calm     75 % 0.0 in 0.0 W/m2 CLR
03:02 2.7 °F -1.3 °F 1027.7 in Calm     75 % 0.0 in 0.0 W/m2 CLR
03:07 2.7 °F -1.4 °F 1027.7 in Calm     74 % 0.0 in 0.0 W/m2 CLR
03:12 2.5 °F -1.8 °F 1027.7 in Calm     73 % 0.0 in 0.0 W/m2 CLR
03:17 2.3 °F -2.0 °F 1027.7 in Calm     73 % 0.0 in 0.0 W/m2 CLR
03:22 2.3 °F -1.9 °F 1027.7 in Calm     74 % 0.0 in 0.0 W/m2 CLR
03:27 2.2 °F -1.9 °F 1027.7 in Calm     74 % 0.0 in 0.0 W/m2 CLR
03:32 2.1 °F -2.1 °F 1027.3 in Calm     74 % 0.0 in 0.0 W/m2 CLR
03:37 2.1 °F -2.1 °F 1027.3 in Calm     74 % 0.0 in 0.0 W/m2 CLR
03:42 1.9 °F -2.2 °F 1027.3 in Calm     74 % 0.0 in 0.0 W/m2 CLR
03:47 1.8 °F -2.3 °F 1027.3 in Calm     74 % 0.0 in 0.0 W/m2 CLR
03:52 1.7 °F -2.4 °F 1027.3 in Calm     74 % 0.0 in 0.0 W/m2 CLR
03:57 1.7 °F -2.3 °F 1027.0 in Calm     75 % 0.0 in 0.0 W/m2 CLR
04:02 1.6 °F -2.4 °F 1027.0 in Calm     75 % 0.0 in 0.0 W/m2 CLR
04:07 1.4 °F -2.4 °F 1027.3 in Calm     76 % 0.0 in 0.0 W/m2 CLR
04:12 1.3 °F -2.6 °F 1027.3 in Calm     75 % 0.0 in 0.0 W/m2 CLR
04:17 1.2 °F -2.7 °F 1027.3 in Calm     75 % 0.0 in 0.0 W/m2 CLR
04:22 1.2 °F -2.7 °F 1027.3 in Calm     75 % 0.0 in 0.0 W/m2 CLR
04:27 1.2 °F -2.8 °F 1027.3 in Calm     75 % 0.0 in 0.0 W/m2 CLR
04:32 1.1 °F -2.7 °F 1027.3 in Calm     76 % 0.0 in 0.0 W/m2 CLR
04:37 0.9 °F -2.8 °F 1027.3 in Calm     76 % 0.0 in 0.0 W/m2 CLR
04:42 0.8 °F -3.1 °F 1027.3 in Calm     75 % 0.0 in 0.0 W/m2 CLR
04:47 0.8 °F -3.2 °F 1027.3 in Calm     75 % 0.0 in 0.0 W/m2 CLR
04:52 0.7 °F -3.4 °F 1027.3 in Calm     74 % 0.0 in 0.0 W/m2 CLR
04:57 0.7 °F -3.4 °F 1027.3 in Calm     74 % 0.0 in 0.0 W/m2 CLR
05:02 0.7 °F -3.4 °F 1027.3 in Calm     74 % 0.0 in 0.0 W/m2 CLR
05:07 0.7 °F -3.4 °F 1027.3 in Calm     74 % 0.0 in 0.0 W/m2 CLR
05:12 0.6 °F -3.5 °F 1027.3 in Calm     74 % 0.0 in 0.0 W/m2 CLR
05:17 0.6 °F -3.5 °F 1027.3 in Calm     74 % 0.0 in 0.0 W/m2 CLR
05:22 0.6 °F -3.6 °F 1027.0 in Calm     74 % 0.0 in 0.0 W/m2 CLR
05:27 0.5 °F -3.4 °F 1027.3 in Calm     75 % 0.0 in 0.0 W/m2 CLR
05:32 0.4 °F -3.6 °F 1027.0 in Calm     75 % 0.0 in 0.0 W/m2 CLR
05:37 0.3 °F -3.4 °F 1027.0 in Calm     76 % 0.0 in 0.0 W/m2 CLR
05:42 0.2 °F -3.5 °F 1027.0 in Calm     76 % 0.0 in 0.0 W/m2 CLR
05:47 0.1 °F -3.7 °F 1027.0 in Calm     76 % 0.0 in 0.0 W/m2 CLR
05:52 -0.1 °F -3.8 °F 1027.0 in Calm     76 % 0.0 in 0.0 W/m2 CLR
05:57 -0.1 °F -3.8 °F 1027.0 in Calm     76 % 0.0 in 0.0 W/m2 CLR
06:03 -0.1 °F -3.7 °F 1027.0 in Calm     77 % 0.0 in 0.0 W/m2 CLR
06:08 -0.1 °F -3.8 °F 1027.0 in Calm     76 % 0.0 in 0.0 W/m2 CLR
06:13 0.1 °F -3.8 °F 1027.0 in Calm     75 % 0.0 in 0.0 W/m2 CLR
06:18 0.1 °F -3.8 °F 1027.3 in Calm     75 % 0.0 in 0.0 W/m2 CLR
06:23 0.1 °F -3.8 °F 1027.3 in Calm     75 % 0.0 in 0.0 W/m2 CLR
06:28 0.1 °F -3.8 °F 1027.3 in Calm     75 % 0.0 in 0.0 W/m2 CLR
06:33 0.1 °F -4.1 °F 1027.3 in Calm     74 % 0.0 in 0.0 W/m2 CLR
06:38 0.1 °F -4.1 °F 1027.3 in Calm     74 % 0.0 in 0.0 W/m2 CLR
06:43 0.0 °F -4.3 °F 1027.3 in Calm     73 % 0.0 in 0.0 W/m2 CLR
06:48 0.0 °F -4.1 °F 1027.3 in Calm     74 % 0.0 in 0.0 W/m2 CLR
06:53 0.0 °F -4.1 °F 1027.3 in Calm     74 % 0.0 in 0.0 W/m2 CLR
06:58 0.0 °F -4.3 °F 1027.3 in Calm     73 % 0.0 in 0.0 W/m2 CLR
07:03 0.0 °F -4.1 °F 1027.3 in Calm     74 % 0.0 in 0.0 W/m2 OVC
07:08 -0.1 °F -4.3 °F 1027.7 in Calm     73 % 0.0 in 0.0 W/m2 OVC
07:13 0.0 °F -4.3 °F 1027.7 in Calm     73 % 0.0 in 5.0 W/m2 OVC
07:18 0.1 °F -4.2 °F 1027.7 in Calm     73 % 0.0 in 9.0 W/m2 BKN
07:23 0.0 °F -4.3 °F 1027.7 in Calm     73 % 0.0 in 11.0 W/m2 BKN
07:28 -0.1 °F -4.3 °F 1027.7 in Calm     73 % 0.0 in 12.0 W/m2 BKN
07:33 -0.1 °F -4.4 °F 1027.7 in Calm     73 % 0.0 in 16.0 W/m2 BKN
07:38 0.0 °F -4.1 °F 1027.7 in Calm     74 % 0.0 in 19.0 W/m2 BKN
07:43 0.2 °F -3.9 °F 1027.7 in Calm     74 % 0.0 in 26.0 W/m2 BKN
07:48 0.4 °F -3.7 °F 1027.7 in Calm     74 % 0.0 in 37.0 W/m2 BKN
07:53 0.7 °F -3.4 °F 1027.7 in Calm     74 % 0.0 in 47.0 W/m2 SCT
07:58 1.0 °F -3.3 °F 1027.7 in Calm     73 % 0.0 in 63.0 W/m2 SCT
08:03 1.2 °F -3.5 °F 1027.7 in Calm     71 % 0.0 in 77.0 W/m2 FEW
08:08 1.4 °F -3.3 °F 1027.7 in Calm     71 % 0.0 in 93.0 W/m2 CLR
08:13 2.0 °F -2.9 °F 1027.7 in Calm     70 % 0.0 in 113.0 W/m2 CLR
08:18 2.4 °F -2.9 °F 1027.7 in Calm     68 % 0.0 in 130.0 W/m2 CLR
08:23 2.8 °F -2.7 °F 1027.7 in Calm     67 % 0.0 in 149.0 W/m2 CLR
08:28 3.1 °F -2.7 °F 1027.7 in Calm     66 % 0.0 in 167.0 W/m2 CLR
08:33 3.5 °F -2.3 °F 1027.7 in Calm     66 % 0.0 in 190.0 W/m2 CLR
08:38 4.1 °F -2.4 °F 1027.7 in Calm     63 % 0.0 in 209.0 W/m2 CLR
08:43 4.3 °F -2.1 °F 1027.7 in Calm     63 % 0.0 in 229.0 W/m2 CLR
08:48 4.7 °F -1.9 °F 1027.7 in Calm     62 % 0.0 in 244.0 W/m2 CLR
08:53 5.1 °F -2.1 °F 1027.3 in Calm     60 % 0.0 in 262.0 W/m2 CLR
08:58 5.3 °F -2.1 °F 1027.3 in Calm     59 % 0.0 in 281.0 W/m2 CLR
09:03 5.7 °F -2.2 °F 1027.3 in Calm     57 % 0.0 in 297.0 W/m2 CLR
09:08 6.1 °F -2.3 °F 1027.3 in Calm     55 % 0.0 in 253.0 W/m2 CLR
09:13 6.5 °F -2.2 °F 1027.3 in Calm     54 % 0.0 in 102.0 W/m2 FEW
09:18 6.9 °F -2.3 °F 1027.3 in Calm     52 % 0.0 in 350.0 W/m2 FEW
09:23 7.4 °F -2.4 °F 1027.0 in Calm     50 % 0.0 in 366.0 W/m2 CLR
09:28 7.8 °F -2.5 °F 1027.0 in Calm     48 % 0.0 in 381.0 W/m2 CLR
09:33 8.3 °F -2.1 °F 1027.0 in Calm     48 % 0.0 in 397.0 W/m2 CLR
09:38 8.7 °F -2.3 °F 1027.0 in Calm     46 % 0.0 in 417.0 W/m2 CLR
09:43 9.2 °F -2.2 °F 1027.0 in Calm     45 % 0.0 in 432.0 W/m2 CLR
09:48 9.6 °F -1.8 °F 1027.0 in Calm     45 % 0.0 in 446.0 W/m2 CLR
09:53 10.0 °F -1.7 °F 1026.6 in Calm     44 % 0.0 in 462.0 W/m2 CLR
09:58 10.3 °F -1.4 °F 1026.6 in Calm     44 % 0.0 in 480.0 W/m2 CLR
10:03 10.8 °F -0.9 °F 1026.6 in Calm     44 % 0.0 in 496.0 W/m2 CLR
10:08 11.3 °F -0.5 °F 1026.6 in Calm     44 % 0.0 in 513.0 W/m2 CLR
10:13 11.9 °F -0.3 °F 1026.6 in Calm     43 % 0.0 in 527.0 W/m2 CLR
10:18 12.2 °F -0.7 °F 1026.6 in Calm     41 % 0.0 in 543.0 W/m2 CLR
10:23 12.5 °F -0.4 °F 1026.6 in Calm     41 % 0.0 in 561.0 W/m2 CLR
10:28 13.1 °F 0.1 °F 1026.3 in Calm     41 % 0.0 in 573.0 W/m2 CLR
10:33 13.5 °F 0.2 °F 1026.3 in Calm     40 % 0.0 in 589.0 W/m2 CLR
10:38 13.7 °F 0.3 °F 1026.3 in Calm     40 % 0.0 in 603.0 W/m2 CLR
10:43 14.0 °F 0.2 °F 1026.3 in Calm     39 % 0.0 in 615.0 W/m2 CLR
10:48 14.1 °F 0.7 °F 1026.3 in Calm     40 % 0.0 in 631.0 W/m2 CLR
10:53 14.3 °F 0.6 °F 1026.0 in Calm     39 % 0.0 in 643.0 W/m2 CLR
10:58 14.4 °F 0.3 °F 1026.3 in Calm     38 % 0.0 in 656.0 W/m2 CLR
11:03 14.7 °F 0.5 °F 1026.0 in East 3.7 mph 3.7 mph 38 % 0.0 in 668.0 W/m2 CLR
11:08 14.7 °F 0.2 °F 1026.0 in Calm     37 % 0.0 in 684.0 W/m2 CLR
11:13 14.9 °F 0.3 °F 1026.0 in ENE 1.9 mph   37 % 0.0 in 694.0 W/m2 CLR
11:18 15.3 °F 0.3 °F 1026.0 in ESE 5.6 mph 5.6 mph 36 % 0.0 in 708.0 W/m2 CLR
11:23 15.7 °F -0.2 °F 1025.6 in Calm     34 % 0.0 in 721.0 W/m2 CLR
11:28 16.0 °F 0.1 °F 1026.0 in Calm     34 % 0.0 in 733.0 W/m2 CLR
11:33 16.4 °F -0.4 °F 1025.6 in ESE 5.6 mph 5.6 mph 32 % 0.0 in 745.0 W/m2 CLR
11:38 16.3 °F -0.8 °F 1025.6 in NE 5.6 mph 5.6 mph 31 % 0.0 in 752.0 W/m2 CLR
11:43 16.4 °F -2.6 °F 1025.6 in East 5.6 mph 5.6 mph 27 % 0.0 in 766.0 W/m2 CLR
11:48 16.3 °F -3.8 °F 1025.6 in Calm     25 % 0.0 in 775.0 W/m2 CLR
11:53 16.5 °F -4.7 °F 1025.3 in ESE 5.6 mph 5.6 mph 23 % 0.0 in 786.0 W/m2 CLR
11:58 16.7 °F -2.9 °F 1025.3 in ESE 5.6 mph 5.6 mph 26 % 0.0 in 796.0 W/m2 CLR
12:03 16.8 °F -2.8 °F 1025.3 in ENE 3.7 mph 3.7 mph 26 % 0.0 in 807.0 W/m2 CLR
12:08 16.9 °F -3.3 °F 1025.3 in East 3.7 mph 3.7 mph 25 % 0.0 in 814.0 W/m2 CLR
12:13 16.9 °F -3.3 °F 1025.3 in Calm     25 % 0.0 in 824.0 W/m2 CLR
12:18 17.4 °F -3.4 °F 1024.9 in Calm     24 % 0.0 in 833.0 W/m2 CLR
12:23 17.8 °F -4.2 °F 1024.9 in ENE 1.9 mph   22 % 0.0 in 840.0 W/m2 CLR
12:28 18.0 °F -4.1 °F 1024.9 in Calm     22 % 0.0 in 847.0 W/m2 CLR
12:33 18.2 °F -3.3 °F 1024.6 in ENE 3.2 mph   23 % 0.0 in 856.0 W/m2 CLR
12:38 18.5 °F -3.1 °F 1024.6 in ENE 9.3 mph 9.3 mph 23 % 0.0 in 863.0 W/m2 CLR
12:43 18.3 °F -1.6 °F 1024.6 in North 6.4 mph 6.4 mph 26 % 0.0 in 867.0 W/m2 CLR
12:48 18.4 °F -1.4 °F 1024.6 in North 6.4 mph 6.4 mph 26 % 0.0 in 870.0 W/m2 CLR
12:53 18.5 °F -1.4 °F 1024.3 in Calm   0.8 mph 26 % 0.0 in 875.0 W/m2 CLR
12:59 18.7 °F -0.7 °F 1024.3 in ENE 9.3 mph 9.3 mph 27 % 0.0 in 882.0 W/m2 CLR
13:04 18.8 °F -0.6 °F 1024.3 in ENE 5.6 mph 5.6 mph 27 % 0.0 in 886.0 W/m2 CLR
13:09 19.1 °F -0.4 °F 1024.3 in NE 5.6 mph 5.6 mph 27 % 0.0 in 891.0 W/m2 CLR
13:14 19.2 °F -0.8 °F 1023.9 in NNW 3.7 mph   26 % 0.0 in 893.0 W/m2 CLR
13:19 19.5 °F -0.6 °F 1023.9 in ENE 9.3 mph 9.3 mph 26 % 0.0 in 900.0 W/m2 CLR
13:24 19.5 °F -1.1 °F 1023.9 in North 7.4 mph 7.4 mph 25 % 0.0 in 905.0 W/m2 CLR
13:29 19.3 °F -1.2 °F 1023.9 in North 5.6 mph 5.6 mph 25 % 0.0 in 905.0 W/m2 CLR
13:34 19.5 °F -1.1 °F 1023.6 in Calm     25 % 0.0 in 909.0 W/m2 CLR
13:39 19.8 °F -2.5 °F 1023.6 in NE 9.3 mph   22 % 0.0 in 912.0 W/m2 CLR
13:44 20.2 °F -2.2 °F 1023.6 in NE 8.0 mph 8.0 mph 22 % 0.0 in 912.0 W/m2 CLR
13:49 20.3 °F -1.6 °F 1023.6 in NE 9.3 mph 9.3 mph 23 % 0.0 in 914.0 W/m2 CLR
13:54 20.4 °F -2.1 °F 1023.2 in North 5.6 mph 5.6 mph 22 % 0.0 in 916.0 W/m2 CLR
13:59 20.4 °F -2.0 °F 1023.2 in North 5.6 mph 5.6 mph 22 % 0.0 in 916.0 W/m2 CLR
14:04 20.4 °F -2.1 °F 1023.2 in NE 9.7 mph 9.7 mph 22 % 0.0 in 916.0 W/m2 CLR
14:09 20.7 °F -1.8 °F 1023.2 in ENE 6.4 mph 6.4 mph 22 % 0.0 in 912.0 W/m2 CLR
14:14 20.8 °F -2.4 °F 1023.2 in East 11.3 mph 11.3 mph 21 % 0.0 in 909.0 W/m2 CLR
14:19 20.8 °F -2.3 °F 1022.9 in Calm     21 % 0.0 in 909.0 W/m2 CLR
14:24 21.0 °F -1.6 °F 1022.9 in NE 3.7 mph 3.7 mph 22 % 0.0 in 907.0 W/m2 CLR
14:29 21.2 °F -1.4 °F 1022.9 in East 9.3 mph 9.3 mph 22 % 0.0 in 907.0 W/m2 CLR
14:34 21.0 °F -1.6 °F 1022.9 in ENE 13.0 mph 13.0 mph 22 % 0.0 in 900.0 W/m2 CLR
14:39 21.0 °F -1.6 °F 1022.6 in Calm     22 % 0.0 in 891.0 W/m2 CLR
14:44 21.3 °F -0.1 °F 1022.6 in Calm     24 % 0.0 in 888.0 W/m2 CLR
14:49 21.4 °F -1.2 °F 1022.6 in ENE 3.7 mph   22 % 0.0 in 889.0 W/m2 CLR
14:54 21.1 °F -0.9 °F 1022.6 in East 8.0 mph 8.0 mph 23 % 0.0 in 882.0 W/m2 CLR
14:59 21.1 °F 0.3 °F 1022.6 in ESE 11.3 mph 11.3 mph 25 % 0.0 in 879.0 W/m2 CLR
15:04 21.5 °F 0.1 °F 1022.2 in SE 11.1 mph 11.1 mph 24 % 0.0 in 874.0 W/m2 CLR
15:09 21.4 °F -0.1 °F 1022.2 in East 9.3 mph 9.3 mph 24 % 0.0 in 867.0 W/m2 CLR
15:14 21.4 °F -0.1 °F 1022.2 in NNE 5.6 mph 5.6 mph 24 % 0.0 in 861.0 W/m2 CLR
15:19 21.7 °F 0.8 °F 1021.9 in ENE 5.6 mph 5.6 mph 25 % 0.0 in 861.0 W/m2 CLR
15:24 21.9 °F 1.5 °F 1021.9 in East 12.9 mph 12.9 mph 26 % 0.0 in 851.0 W/m2 CLR
15:29 21.7 °F 0.8 °F 1021.9 in SE 13.0 mph 13.0 mph 25 % 0.0 in 842.0 W/m2 CLR
15:34 21.8 °F 0.9 °F 1021.9 in NE 5.6 mph   25 % 0.0 in 835.0 W/m2 CLR
15:39 21.8 °F 0.9 °F 1021.6 in East 7.4 mph 7.4 mph 25 % 0.0 in 828.0 W/m2 CLR
15:44 22.0 °F 2.1 °F 1021.6 in ENE 14.8 mph 14.8 mph 27 % 0.0 in 814.0 W/m2 CLR
15:49 22.3 °F 2.4 °F 1021.6 in NNE 7.4 mph 7.4 mph 27 % 0.0 in 809.0 W/m2 CLR
15:54 22.5 °F 2.6 °F 1021.6 in East 11.1 mph 11.1 mph 27 % 0.0 in 800.0 W/m2 CLR
15:59 22.1 °F 2.2 °F 1021.2 in NNW 11.1 mph 11.1 mph 27 % 0.0 in 793.0 W/m2 CLR
16:04 22.1 °F 3.2 °F 1021.2 in NNE 9.3 mph 9.3 mph 29 % 0.0 in 784.0 W/m2 CLR
16:09 22.3 °F 2.9 °F 1021.2 in NE 13.0 mph 13.0 mph 28 % 0.0 in 770.0 W/m2 CLR
16:14 22.3 °F 4.4 °F 1020.9 in ESE 4.8 mph 4.8 mph 31 % 0.0 in 735.0 W/m2 CLR
16:19 22.1 °F 5.1 °F 1020.9 in NE 19.3 mph 19.3 mph 33 % 0.0 in 717.0 W/m2 CLR
16:24 22.1 °F 5.1 °F 1020.9 in ENE 6.4 mph 6.4 mph 33 % 0.0 in 703.0 W/m2 CLR
16:29 22.1 °F 5.1 °F 1020.9 in ENE 18.5 mph 18.5 mph 33 % 0.0 in 731.0 W/m2 CLR
16:34 22.2 °F 5.1 °F 1020.9 in NNE 17.7 mph 17.7 mph 33 % 0.0 in 708.0 W/m2 CLR
16:39 22.1 °F 5.5 °F 1020.9 in NNE 20.4 mph 20.4 mph 34 % 0.0 in 693.0 W/m2 CLR
16:43 22.2 °F 5.6 °F 1020.5 in ENE 5.6 mph 7.2 mph 34 % 0.0 in 696.0 W/m2 CLR
16:48 22.2 °F 5.6 °F 1020.5 in NE 9.7 mph 9.7 mph 34 % 0.0 in 687.0 W/m2 CLR
16:53 22.2 °F 6.0 °F 1020.5 in NE 20.4 mph 20.4 mph 35 % 0.0 in 663.0 W/m2 CLR
16:58 22.2 °F 6.0 °F 1020.5 in NE 18.5 mph 18.5 mph 35 % 0.0 in 650.0 W/m2 CLR
17:03 22.3 °F 6.1 °F 1020.5 in Calm     35 % 0.0 in 629.0 W/m2 CLR
17:08 22.4 °F 6.2 °F 1020.2 in East 14.8 mph 14.8 mph 35 % 0.0 in 629.0 W/m2 CLR
17:13 22.3 °F 6.5 °F 1020.2 in ENE 8.0 mph 8.0 mph 36 % 0.0 in 612.0 W/m2 CLR
17:18 22.3 °F 5.7 °F 1020.2 in NE 7.4 mph 7.4 mph 34 % 0.0 in 598.0 W/m2 CLR
17:23 22.3 °F 6.1 °F 1020.2 in NE 16.7 mph 16.7 mph 35 % 0.0 in 580.0 W/m2 CLR
17:28 22.3 °F 6.1 °F 1020.2 in East 9.3 mph 9.3 mph 35 % 0.0 in 571.0 W/m2 CLR
17:33 22.2 °F 6.0 °F 1020.2 in ENE 14.8 mph 14.8 mph 35 % 0.0 in 554.0 W/m2 CLR
17:38 22.1 °F 6.3 °F 1020.2 in NE 20.4 mph 20.4 mph 36 % 0.0 in 543.0 W/m2 CLR
17:43 22.0 °F 6.2 °F 1020.2 in ENE 9.3 mph 9.3 mph 36 % 0.0 in 527.0 W/m2 CLR
17:48 22.0 °F 6.6 °F 1019.9 in East 5.6 mph 5.6 mph 37 % 0.0 in 506.0 W/m2 CLR
17:53 21.9 °F 6.1 °F 1019.9 in East 3.7 mph 3.7 mph 36 % 0.0 in 489.0 W/m2 CLR
17:58 21.8 °F 6.1 °F 1019.9 in East 9.7 mph 9.7 mph 36 % 0.0 in 448.0 W/m2 CLR
18:03 21.4 °F 6.1 °F 1019.9 in ESE 7.4 mph 7.4 mph 37 % 0.0 in 396.0 W/m2 CLR
18:08 21.3 °F 6.1 °F 1019.9 in East 11.1 mph 11.1 mph 37 % 0.0 in 336.0 W/m2 CLR
18:13 21.2 °F 6.7 °F 1019.9 in East 5.6 mph 5.6 mph 39 % 0.0 in 322.0 W/m2 CLR
18:18 21.0 °F 6.1 °F 1019.9 in East 9.7 mph 9.7 mph 38 % 0.0 in 367.0 W/m2 CLR
18:23 20.9 °F 6.4 °F 1019.9 in ESE 14.8 mph 14.8 mph 39 % 0.0 in 352.0 W/m2 CLR
18:28 20.7 °F 6.3 °F 1019.9 in East 20.4 mph 20.4 mph 39 % 0.0 in 302.0 W/m2 CLR
18:33 20.6 °F 5.8 °F 1019.9 in East 11.1 mph 11.1 mph 38 % 0.0 in 237.0 W/m2 CLR
18:38 20.4 °F 6.0 °F 1019.9 in ESE 5.6 mph 5.6 mph 39 % 0.0 in 227.0 W/m2 CLR
18:44 20.4 °F 6.4 °F 1019.9 in ESE 7.4 mph 7.4 mph 40 % 0.0 in 272.0 W/m2 CLR
18:49 20.5 °F 6.8 °F 1019.9 in ESE 9.3 mph 9.3 mph 41 % 0.0 in 253.0 W/m2 CLR
18:54 20.4 °F 6.7 °F 1019.9 in ESE 7.4 mph 7.4 mph 41 % 0.0 in 257.0 W/m2 CLR
18:59 20.2 °F 6.5 °F 1019.9 in ESE 14.8 mph 14.8 mph 41 % 0.0 in 230.0 W/m2 CLR
19:04 19.9 °F 6.7 °F 1019.9 in ESE 9.3 mph 9.3 mph 42 % 0.0 in 216.0 W/m2 CLR
19:09 19.8 °F 6.9 °F 1019.9 in ESE 13.0 mph 13.0 mph 43 % 0.0 in 257.0 W/m2 CLR
19:14 19.5 °F 6.9 °F 1019.9 in ESE 11.1 mph 11.1 mph 44 % 0.0 in 248.0 W/m2 CLR
19:19 19.4 °F 7.2 °F 1019.9 in ESE 11.1 mph 11.1 mph 45 % 0.0 in 237.0 W/m2 CLR
19:24 19.3 °F 7.1 °F 1019.9 in East 8.0 mph 8.0 mph 45 % 0.0 in 200.0 W/m2 CLR
19:29 19.1 °F 6.9 °F 1019.9 in East 13.0 mph 13.0 mph 45 % 0.0 in 178.0 W/m2 CLR
19:34 18.8 °F 6.9 °F 1019.9 in East 9.3 mph 9.3 mph 46 % 0.0 in 160.0 W/m2 CLR
19:39 18.8 °F 6.9 °F 1019.5 in ESE 7.4 mph 7.4 mph 46 % 0.0 in 149.0 W/m2 CLR
19:44 18.7 °F 7.2 °F 1019.5 in ESE 5.6 mph 5.6 mph 47 % 0.0 in 98.0 W/m2 CLR
19:49 18.6 °F 7.1 °F 1019.5 in ESE 5.6 mph 5.6 mph 47 % 0.0 in 109.0 W/m2 CLR
19:54 18.6 °F 7.0 °F 1019.5 in East 5.6 mph 5.6 mph 47 % 0.0 in 88.0 W/m2 CLR
19:59 18.5 °F 6.9 °F 1019.5 in ESE 7.4 mph 7.4 mph 47 % 0.0 in 81.0 W/m2 FEW
20:04 18.2 °F 7.0 °F 1019.5 in East 5.6 mph 5.6 mph 48 % 0.0 in 58.0 W/m2 SCT
20:09 18.0 °F 6.8 °F 1019.5 in ESE 3.7 mph 3.7 mph 48 % 0.0 in 33.0 W/m2 BKN
20:14 17.9 °F 6.7 °F 1019.9 in ESE 1.9 mph 1.9 mph 48 % 0.0 in 32.0 W/m2 BKN
20:19 17.7 °F 6.9 °F 1019.5 in ESE 5.6 mph 5.6 mph 49 % 0.0 in 21.0 W/m2 BKN
20:24 17.6 °F 6.7 °F 1019.5 in ESE 3.2 mph 3.2 mph 49 % 0.0 in 18.0 W/m2 BKN
20:29 17.4 °F 6.8 °F 1019.9 in Calm     50 % 0.0 in 14.0 W/m2 BKN
20:34 17.2 °F 6.7 °F 1019.5 in Calm     50 % 0.0 in 11.0 W/m2 BKN
20:39 17.1 °F 6.8 °F 1019.5 in Calm     51 % 0.0 in 7.0 W/m2 BKN
20:40 17.1 °F 6.8 °F 1019.9 in Calm     51 % 0.0 in 5.0 W/m2 OVC
20:45 16.9 °F 6.7 °F 1019.9 in Calm     51 % 0.0 in 0.0 W/m2 OVC
20:50 16.7 °F 6.8 °F 1019.5 in Calm     52 % 0.0 in 0.0 W/m2 OVC
20:55 16.4 °F 6.6 °F 1019.5 in Calm     52 % 0.0 in 0.0 W/m2 OVC
21:00 16.2 °F 6.6 °F 1019.9 in Calm     53 % 0.0 in 0.0 W/m2 CLR
21:05 16.0 °F 6.7 °F 1019.9 in Calm     54 % 0.0 in 0.0 W/m2 CLR
21:10 15.9 °F 6.6 °F 1019.9 in Calm     54 % 0.0 in 0.0 W/m2 CLR
21:15 15.7 °F 6.4 °F 1019.9 in Calm     54 % 0.0 in 0.0 W/m2 CLR
21:20 15.5 °F 6.5 °F 1019.9 in ENE 5.6 mph 5.6 mph 55 % 0.0 in 0.0 W/m2 CLR
21:25 15.3 °F 6.3 °F 1019.9 in Calm     55 % 0.0 in 0.0 W/m2 CLR
21:30 15.1 °F 6.4 °F 1020.2 in Calm     56 % 0.0 in 0.0 W/m2 CLR
21:31 15.1 °F 6.4 °F 1020.2 in Calm     56 % 0.0 in 0.0 W/m2 CLR
21:36 14.9 °F 6.2 °F 1020.2 in Calm     56 % 0.0 in 0.0 W/m2 CLR
21:41 14.8 °F 6.3 °F 1020.2 in Calm     57 % 0.0 in 0.0 W/m2 CLR
21:46 14.6 °F 6.2 °F 1020.2 in Calm     57 % 0.0 in 0.0 W/m2 CLR
21:51 14.5 °F 6.3 °F 1020.2 in Calm     58 % 0.0 in 0.0 W/m2 CLR
21:56 14.3 °F 6.2 °F 1020.5 in Calm     58 % 0.0 in 0.0 W/m2 CLR
22:01 14.2 °F 6.3 °F 1020.5 in Calm     59 % 0.0 in 0.0 W/m2 CLR
22:06 14.1 °F 6.2 °F 1020.5 in Calm     59 % 0.0 in 0.0 W/m2 CLR
22:11 13.9 °F 6.1 °F 1020.5 in Calm     59 % 0.0 in 0.0 W/m2 CLR
22:16 13.8 °F 6.2 °F 1020.5 in Calm     60 % 0.0 in 0.0 W/m2 CLR
22:21 13.7 °F 6.1 °F 1020.5 in Calm     60 % 0.0 in 0.0 W/m2 CLR
22:26 13.6 °F 5.9 °F 1020.9 in Calm     60 % 0.0 in 0.0 W/m2 CLR
22:31 13.4 °F 6.0 °F 1020.9 in Calm     61 % 0.0 in 0.0 W/m2 CLR
22:36 13.3 °F 5.9 °F 1020.9 in Calm     61 % 0.0 in 0.0 W/m2 CLR
22:41 13.2 °F 6.1 °F 1020.9 in Calm     62 % 0.0 in 0.0 W/m2 CLR
22:46 13.1 °F 6.0 °F 1020.9 in Calm     62 % 0.0 in 0.0 W/m2 CLR
22:51 13.0 °F 5.9 °F 1020.9 in Calm     62 % 0.0 in 0.0 W/m2 CLR
22:56 12.9 °F 5.8 °F 1020.9 in Calm     62 % 0.0 in 0.0 W/m2 CLR
23:01 12.8 °F 5.9 °F 1020.9 in Calm     63 % 0.0 in 0.0 W/m2 CLR
23:06 12.7 °F 5.8 °F 1020.9 in Calm     63 % 0.0 in 0.0 W/m2 CLR
23:11 12.6 °F 5.7 °F 1020.9 in Calm     63 % 0.0 in 0.0 W/m2 CLR
23:16 12.3 °F 5.5 °F 1020.9 in Calm     63 % 0.0 in 0.0 W/m2 CLR
23:21 12.2 °F 5.6 °F 1020.9 in Calm     64 % 0.0 in 0.0 W/m2 CLR
23:26 12.1 °F 5.4 °F 1020.9 in Calm     64 % 0.0 in 0.0 W/m2 CLR
23:31 11.9 °F 5.3 °F 1020.9 in Calm     64 % 0.0 in 0.0 W/m2 CLR
23:36 11.7 °F 5.3 °F 1020.9 in Calm     65 % 0.0 in 0.0 W/m2 CLR
23:41 11.5 °F 5.2 °F 1020.9 in Calm     65 % 0.0 in 0.0 W/m2 CLR
23:46 11.1 °F 5.0 °F 1020.9 in Calm     66 % 0.0 in 0.0 W/m2 CLR
23:51 10.9 °F 5.0 °F 1020.9 in Calm     67 % 0.0 in 0.0 W/m2 CLR
23:56 10.8 °F 5.1 °F 1020.9 in Calm     68 % 0.0 in 0.0 W/m2 CLR
Lo Temps de Massalio
Compliments of Weather Underground - 1.25 mb